User: anonymous   Login
Location: Unspecified
(0.0000°N, 0.0000°E)
Time: 22:21:18
(UTC+00:00)
Language:

DUCHIFAT 1 - Orbit

View from above orbital plane
View from above orbital plane
View from above satellite
View from above satellite

Ground track
Ground track

The orbit data is extracted from the following two-line orbital elements,

1 40021U 14033M   19018.77013679  .00000190  00000-0  25364-4 0  9991
2 40021  97.9212 302.9100 0012666 181.6456 178.4722 14.90499759249065
Epoch (UTC): 18 January 2019 18:28:59
Eccentricity: 0.0012666
inclination: 97.9212°
perigee height: 587 km
apogee height: 605 km
right ascension of ascending node: 302.9100°
argument of perigee: 181.6456°
revolutions per day: 14.90499759
mean anomaly at epoch: 178.4722°
orbit number at epoch: 24906

The dashed part of the orbit path shows where the satellite is in the earth's shadow,  

DLR